TimeCST,TemperatureF,Dew PointF,Humidity,Sea Level PressureIn,VisibilityMPH,Wind Direction,Wind SpeedMPH,Gust SpeedMPH,PrecipitationIn,Events,Conditions,WindDirDegrees,DateUTC
12:52 AM,7.0,3.9,87,30.32,-9999.0,Calm,Calm,-,N/A,,Unknown,0,2013-01-02 06:52:00
1:52 AM,9.0,5.0,84,30.30,-9999.0,Calm,Calm,-,N/A,,Unknown,0,2013-01-02 07:52:00
2:52 AM,9.0,3.9,80,30.29,-9999.0,SSE,3.5,-,N/A,,Unknown,150,2013-01-02 08:52:00
3:52 AM,9.0,5.0,84,30.28,-9999.0,South,4.6,-,N/A,,Unknown,190,2013-01-02 09:52:00
4:52 AM,10.9,5.0,77,30.26,-9999.0,South,6.9,-,N/A,,Unknown,190,2013-01-02 10:52:00
5:52 AM,10.0,6.1,84,30.27,-9999.0,South,4.6,-,N/A,,Unknown,190,2013-01-02 11:52:00
6:52 AM,10.9,7.0,84,30.26,-9999.0,South,6.9,-,N/A,,Unknown,190,2013-01-02 12:52:00
7:52 AM,12.0,8.1,84,30.26,-9999.0,South,5.8,-,N/A,,Unknown,190,2013-01-02 13:52:00
8:52 AM,15.1,10.9,84,30.24,-9999.0,SSW,6.9,-,N/A,,Unknown,200,2013-01-02 14:52:00
9:52 AM,19.9,15.1,81,30.25,-9999.0,South,6.9,-,N/A,,Unknown,190,2013-01-02 15:52:00
10:52 AM,24.1,17.1,75,30.24,-9999.0,South,8.1,-,N/A,,Unknown,180,2013-01-02 16:52:00
11:52 AM,28.0,19.0,69,30.22,-9999.0,SSW,9.2,-,N/A,,Unknown,200,2013-01-02 17:52:00
12:52 PM,33.1,21.9,64,30.19,-9999.0,South,6.9,-,N/A,,Unknown,190,2013-01-02 18:52:00
1:52 PM,34.0,21.9,61,30.16,-9999.0,SW,10.4,-,N/A,,Unknown,230,2013-01-02 19:52:00
2:52 PM,35.1,21.9,59,30.16,-9999.0,SW,8.1,-,N/A,,Unknown,220,2013-01-02 20:52:00
3:52 PM,34.0,21.0,59,30.18,-9999.0,West,8.1,-,N/A,,Unknown,260,2013-01-02 21:52:00
4:52 PM,32.0,21.0,64,30.19,-9999.0,SW,5.8,-,N/A,,Unknown,230,2013-01-02 22:52:00
5:52 PM,30.0,21.0,69,30.22,-9999.0,West,3.5,-,N/A,,Unknown,280,2013-01-02 23:52:00
6:52 PM,30.0,21.0,69,30.24,-9999.0,West,4.6,-,N/A,,Unknown,280,2013-01-03 00:52:00
7:52 PM,28.9,21.0,72,30.26,-9999.0,West,3.5,-,N/A,,Unknown,280,2013-01-03 01:52:00
8:52 PM,27.0,21.0,78,30.27,-9999.0,WSW,3.5,-,N/A,,Unknown,240,2013-01-03 02:52:00
9:52 PM,27.0,19.9,75,30.28,-9999.0,Calm,Calm,-,N/A,,Unknown,0,2013-01-03 03:52:00
10:52 PM,26.1,19.0,75,30.28,-9999.0,WSW,4.6,-,N/A,,Unknown,250,2013-01-03 04:52:00
11:52 PM,25.0,19.9,81,30.28,-9999.0,Calm,Calm,-,N/A,,Unknown,0,2013-01-03 05:52:00